Weather in Zhytomyr

Ukraine / Zhytomyr Region     50˚15′16″N   28˚39′31″E
temp.,
°C
wind,
m/s
gust,
m/s
humid.,
%
clouds,
%
prec.,
mm/h
press.,
hPa
HPBL,
m
28 november, sat
sat2823:00+2˚wsw4893100 0.1 1019320
02:00+2˚wsw4791100 0.1 1018261
05:00+2˚wsw369297 0.1 1017211
08:00+2˚w369297 0.3 1017231
11:00+2˚wsw2495100 0.2 1018235
14:00+3˚wsw2475100 0.3 1018561
17:00+2˚wsw2287100 0.2 101796
20:00sw249498 0.3 101885
29 november, sun
sun2923:00+1˚wsw349498 0.1 1018322
02:00+1˚ssw238399 0.1 1018365
05:00ssw2488100 0.0 1018230
08:00−1˚ssw2396100 0.1 101985
11:00+1˚sw238480 0.0 1020414
14:00+2˚wsw227890 0.1 1020534
17:00wsw128688 0.1 102137
20:00−1˚sw228294 0.1 102246
30 november, mon
mon3023:00−1˚sw228497 0.0 102235
02:00−2˚wsw228653 0.0 102333
05:00−2˚wsw22870 0.0 102336
08:00−2˚w12880 0.0 102523
11:00wnw23740 0.0 1025445
14:00+1˚nw34681 0.0 1026680
17:00−2˚nw23840 0.0 102646
20:00−3˚nw35840 0.0 1027160
1 december, tue
tue123:00−3˚nw23840 0.0 102883
02:00−3˚n128416 0.0 102822
05:00−3˚ene128893 0.0 102825
08:00−3˚ene128491 0.0 102931
11:00−1˚ene346924 0.0 1029535
14:00ne346616 0.0 1028537
17:00−3˚ene23810 0.0 102859
20:00−3˚ne36850 0.0 1028154
2 december, wed
wed223:00−3˚ne24899 0.0 1028120
02:00−3˚ne349541 0.1 1028172
05:00−2˚ne249781 0.1 1027129
08:00−1˚ne259891 0.3 1027169
11:00ene239198 0.1 1027215
14:00+1˚ene239399 0.1 1026258
17:00ese2399100 0.1 1026127
20:00ese2599100 0.3 1027228